| time (UTC) | temp F | wind direction | speed MPH | gust MPH | rain 1hr in | rain 24hr in | rain mn in | humidity % | barometer mb |
| 20260503023312 | 55 | 279 | 2.0 | 6.0 | 0.00 | 0.00 | 0.00 | 94 | 1010.2 |
| 20260503022312 | 55 | 234 | 2.0 | 5.0 | 0.00 | 0.00 | 0.00 | 94 | 1010.3 |
| 20260503021312 | 55 | 228 | 3.0 | 5.0 | 0.00 | 0.00 | 0.00 | 94 | 1010.2 |
| 20260503020312 | 55 | 252 | 3.0 | 6.0 | 0.00 | 0.00 | 0.00 | 94 | 1010.2 |
| 20260503015312 | 55 | 286 | 2.0 | 5.0 | 0.00 | 0.00 | 0.00 | 95 | 1010.4 |
| 20260503014313 | 55 | 178 | 4.0 | 7.0 | 0.00 | 0.00 | 0.00 | 95 | 1010.5 |
| 20260503013313 | 55 | 234 | 2.0 | 7.0 | 0.00 | 0.00 | 0.00 | 95 | 1010.6 |
| 20260503012312 | 55 | 239 | 3.0 | 9.0 | 0.00 | 0.00 | 0.00 | 95 | 1010.6 |
| 20260503011313 | 55 | 237 | 4.0 | 9.0 | 0.00 | 0.00 | 0.00 | 95 | 1010.6 |
| 20260503010312 | 55 | 231 | 3.0 | 6.0 | 0.00 | 0.00 | 0.00 | 95 | 1010.7 |
| 20260503004311 | 55 | 222 | 4.0 | 8.0 | 0.00 | 0.00 | 0.00 | 95 | 1010.8 |
| 20260503003312 | 55 | 248 | 3.0 | 7.0 | 0.00 | 0.00 | 0.00 | 95 | 1010.9 |
| 20260503002312 | 55 | 190 | 3.0 | 6.0 | 0.00 | 0.00 | 0.00 | 95 | 1010.9 |
| 20260503000312 | 55 | 237 | 3.0 | 5.0 | 0.00 | 0.00 | 0.00 | 94 | 1011.2 |
| 20260502235312 | 56 | 225 | 3.0 | 4.0 | 0.00 | 0.00 | 0.00 | 94 | 1011.3 |
| 20260502234312 | 56 | 215 | 2.0 | 4.0 | 0.00 | 0.00 | 0.00 | 94 | 1011.3 |
| 20260502233312 | 56 | 206 | 2.0 | 3.0 | 0.00 | 0.00 | 0.00 | 94 | 1011.4 |
| 20260502232313 | 56 | 159 | 1.0 | 3.0 | 0.00 | 0.00 | 0.00 | 94 | 1011.4 |
| 20260502231312 | 56 | 314 | 0.0 | 2.0 | 0.00 | 0.00 | 0.00 | 94 | 1011.4 |
| 20260502230311 | 56 | 269 | 1.0 | 4.0 | 0.00 | 0.00 | 0.00 | 94 | 1011.4 |
| 20260502225311 | 56 | 197 | 1.0 | 3.0 | 0.00 | 0.00 | 0.00 | 94 | 1011.5 |
| 20260502224312 | 56 | 178 | 1.0 | 2.0 | 0.00 | 0.00 | 0.00 | 94 | 1011.5 |
| 20260502222311 | 56 | 202 | 1.0 | 3.0 | 0.00 | 0.00 | 0.00 | 94 | 1011.7 |
| 20260502221311 | 56 | 161 | 1.0 | 3.0 | 0.00 | 0.00 | 0.00 | 93 | 1011.9 |
| 20260502220311 | 56 | 216 | 1.0 | 3.0 | 0.00 | 0.00 | 0.00 | 93 | 1011.9 |
| 20260502215312 | 56 | 178 | 2.0 | 3.0 | 0.00 | 0.63 | 0.63 | 93 | 1011.8 |
| 20260502214311 | 56 | 157 | 1.0 | 2.0 | 0.00 | 0.63 | 0.63 | 93 | 1011.7 |
| 20260502213311 | 56 | 170 | 1.0 | 3.0 | 0.00 | 0.63 | 0.63 | 93 | 1011.8 |
| 20260502211311 | 56 | 28 | 0.0 | 2.0 | 0.00 | 0.63 | 0.63 | 93 | 1011.7 |
| 20260502210311 | 56 | 188 | 1.0 | 4.0 | 0.00 | 0.63 | 0.63 | 93 | 1011.9 |
| 20260502205311 | 57 | 171 | 2.0 | 3.0 | 0.00 | 0.63 | 0.63 | 92 | 1011.9 |
| 20260502204311 | 57 | 161 | 1.0 | 2.0 | 0.00 | 0.63 | 0.63 | 92 | 1011.9 |
| 20260502203311 | 57 | 206 | 1.0 | 2.0 | 0.00 | 0.63 | 0.63 | 92 | 1012.0 |
| 20260502202311 | 57 | 148 | 1.0 | 2.0 | 0.00 | 0.63 | 0.63 | 92 | 1012.0 |
| 20260502201311 | 57 | 178 | 0.0 | 1.0 | 0.00 | 0.63 | 0.63 | 92 | 1012.0 |
| 20260502195311 | 57 | 35 | 1.0 | 2.0 | 0.00 | 0.63 | 0.63 | 91 | 1011.7 |
| 20260502194311 | 57 | 108 | 1.0 | 3.0 | 0.00 | 0.63 | 0.63 | 91 | 1011.5 |
| 20260502193311 | 58 | 40 | 1.0 | 2.0 | 0.00 | 0.63 | 0.63 | 90 | 1011.4 |
| 20260502191311 | 58 | 223 | 1.0 | 4.0 | 0.00 | 0.63 | 0.63 | 91 | 1011.3 |
| 20260502190311 | 58 | 46 | 3.0 | 6.0 | 0.00 | 0.63 | 0.63 | 91 | 1011.5 |
| 20260502185311 | 58 | 314 | 2.0 | 6.0 | 0.00 | 0.63 | 0.63 | 91 | 1011.3 |
| 20260502184311 | 59 | 314 | 2.0 | 5.0 | 0.00 | 0.63 | 0.63 | 91 | 1011.4 |
| 20260502183311 | 59 | 178 | 2.0 | 6.0 | 0.00 | 0.63 | 0.63 | 91 | 1011.1 |
| 20260502182311 | 59 | 353 | 4.0 | 5.0 | 0.00 | 0.63 | 0.63 | 91 | 1011.3 |
| 20260502181311 | 60 | 288 | 3.0 | 5.0 | 0.00 | 0.63 | 0.63 | 90 | 1011.3 |
| 20260502170311 | 65 | 223 | 5.0 | 8.0 | 0.00 | 0.63 | 0.63 | 79 | 1011.2 |
| 20260502164311 | 65 | 246 | 4.0 | 10.0 | 0.00 | 0.63 | 0.63 | 77 | 1011.2 |
| 20260502163311 | 65 | 220 | 2.0 | 8.0 | 0.00 | 0.63 | 0.63 | 76 | 1011.1 |
| 20260502162311 | 66 | 232 | 4.0 | 10.0 | 0.00 | 0.63 | 0.63 | 76 | 1011.2 |
| 20260502160311 | 67 | 243 | 5.0 | 11.0 | 0.00 | 0.63 | 0.63 | 74 | 1011.4 |
| 20260502151311 | 67 | 199 | 5.0 | 11.0 | 0.00 | 0.63 | 0.63 | 77 | 1011.7 |
| 20260502150311 | 67 | 226 | 4.0 | 11.0 | 0.00 | 0.63 | 0.63 | 77 | 1011.8 |
| 20260502130310 | 60 | 171 | 9.0 | 14.0 | 0.00 | 0.63 | 0.63 | 97 | 1013.1 |
| 20260502123310 | 58 | 207 | 4.0 | 9.0 | 0.00 | 0.63 | 0.63 | 98 | 1013.5 |
| 20260502122310 | 58 | 186 | 4.0 | 9.0 | 0.00 | 0.63 | 0.63 | 98 | 1013.4 |
| 20260502121310 | 58 | 157 | 3.0 | 6.0 | 0.00 | 0.63 | 0.63 | 98 | 1013.5 |
| 20260502115310 | 58 | 96 | 5.0 | 7.0 | 0.00 | 0.63 | 0.63 | 98 | 1013.6 |
| 20260502114310 | 58 | 105 | 5.0 | 7.0 | 0.00 | 0.63 | 0.63 | 98 | 1013.7 |
| 20260502112310 | 57 | 140 | 4.0 | 11.0 | 0.00 | 0.63 | 0.63 | 98 | 1013.6 |
| 20260502111310 | 57 | 101 | 7.0 | 10.0 | 0.01 | 0.63 | 0.63 | 98 | 1013.4 |
| 20260502110310 | 57 | 128 | 5.0 | 7.0 | 0.02 | 0.63 | 0.63 | 99 | 1013.4 |
| 20260502105310 | 57 | 152 | 5.0 | 8.0 | 0.06 | 0.63 | 0.63 | 99 | 1013.5 |
| 20260502104310 | 57 | 96 | 5.0 | 7.0 | 0.09 | 0.63 | 0.63 | 99 | 1013.4 |
| 20260502103310 | 57 | 42 | 2.0 | 4.0 | 0.13 | 0.63 | 0.63 | 98 | 1013.4 |
| 20260502102310 | 56 | 234 | 1.0 | 8.0 | 0.18 | 0.63 | 0.63 | 98 | 1013.9 |
| 20260502101310 | 56 | 21 | 5.0 | 8.0 | 0.20 | 0.62 | 0.62 | 98 | 1013.6 |
| 20260502100310 | 56 | 269 | 1.0 | 8.0 | 0.28 | 0.61 | 0.61 | 98 | 1015.3 |
| 20260502091311 | 56 | 220 | 6.0 | 12.0 | 0.22 | 0.43 | 0.43 | 98 | 1016.5 |
| 20260502071310 | 56 | 98 | 5.0 | 11.0 | 0.06 | 0.12 | 0.12 | 97 | 1015.6 |
| 20260502070310 | 56 | 91 | 9.0 | 12.0 | 0.05 | 0.10 | 0.10 | 97 | 1015.8 |
| 20260502065310 | 56 | 89 | 4.0 | 8.0 | 0.06 | 0.10 | 0.10 | 97 | 1016.2 |
| 20260502064310 | 55 | 89 | 3.0 | 7.0 | 0.06 | 0.10 | 0.10 | 97 | 1015.8 |
| 20260502063310 | 55 | 103 | 6.0 | 9.0 | 0.06 | 0.09 | 0.09 | 97 | 1015.9 |
| 20260502062310 | 55 | 103 | 6.0 | 12.0 | 0.06 | 0.07 | 0.07 | 96 | 1016.1 |
| 20260502061309 | 55 | 84 | 7.0 | 10.0 | 0.06 | 0.06 | 0.06 | 96 | 1016.4 |
| 20260502060309 | 54 | 112 | 6.0 | 10.0 | 0.06 | 0.06 | 0.06 | 96 | 1016.8 |
| 20260502055309 | 54 | 77 | 5.0 | 8.0 | 0.05 | 0.05 | 0.05 | 95 | 1016.9 |
| 20260502054309 | 54 | 121 | 4.0 | 7.0 | 0.04 | 0.04 | 0.04 | 95 | 1017.1 |
| 20260502053309 | 54 | 129 | 3.0 | 4.0 | 0.03 | 0.03 | 0.03 | 95 | 1017.2 |
| 20260502052309 | 54 | 108 | 2.0 | 3.0 | 0.02 | 0.02 | 0.02 | 95 | 1017.3 |
| 20260502051310 | 54 | 218 | 2.0 | 6.0 | 0.00 | 0.00 | 0.00 | 94 | 1017.6 |
| 20260502050309 | 54 | 211 | 4.0 | 6.0 | 0.00 | 0.00 | 0.00 | 94 | 1017.7 |
| 20260502045309 | 54 | 100 | 2.0 | 4.0 | 0.00 | 0.00 | 0.00 | 94 | 1017.3 |
| 20260502043312 | 54 | 42 | 3.0 | 5.0 | 0.00 | 0.00 | 0.00 | 94 | 1017.2 |
| 20260502041311 | 54 | 82 | 3.0 | 4.0 | 0.00 | 0.00 | 0.00 | 94 | 1017.4 |
| 20260502040311 | 54 | 58 | 3.0 | 7.0 | 0.00 | 0.00 | 0.00 | 94 | 1017.4 |
| 20260502035311 | 54 | 86 | 3.0 | 5.0 | 0.00 | 0.00 | 0.00 | 93 | 1017.5 |
| 20260502034311 | 54 | 54 | 3.0 | 5.0 | 0.00 | 0.00 | 0.00 | 93 | 1017.7 |
| 20260502033311 | 54 | 89 | 3.0 | 4.0 | 0.00 | 0.00 | 0.00 | 93 | 1017.9 |
| 20260502032311 | 54 | 46 | 1.0 | 3.0 | 0.00 | 0.00 | 0.00 | 93 | 1018.0 |
| 20260502031311 | 54 | 105 | 1.0 | 2.0 | 0.00 | 0.00 | 0.00 | 92 | 1018.0 |
| 20260502030311 | 54 | 89 | 2.0 | 4.0 | 0.00 | 0.00 | 0.00 | 92 | 1018.1 |
| 20260502025311 | 54 | 103 | 2.0 | 4.0 | 0.00 | 0.00 | 0.00 | 92 | 1018.2 |
| 20260502024312 | 54 | 28 | 2.0 | 4.0 | 0.00 | 0.00 | 0.00 | 91 | 1018.2 |